Regional Weather Roundup
Issued by NWS

Current Version | Previous Version | Text Only | Print | Product List | Glossary On
Versions: 1 2 3 4 5 6 7 8 9 10 11 12 13 14 15 16 17 18 19 20 21 22 23 24 25 26 27 28 29 30 31 32 33 34 35 36 37 38 39 40 41 42 43 44 45 46 47 48 49 50
000
ASUS44 KLIX 250111
RWRLA
LOUISIANA WEATHER ROUNDUP
NATIONAL WEATHER SERVICE NEW ORLEANS LA
800 PM CDT FRI APR 24 2015

NOTE: "FAIR" INDICATES FEW OR NO CLOUDS BELOW 12,000 FEET WITH NO
      SIGNIFICANT WEATHER AND/OR OBSTRUCTIONS TO VISIBILITY.
      SKY/WX - SKY CONDITION AND SIGNIFICANT WEATHER.
      TMP - AIR TEMPERATURE.    DP   - DEWPOINT TEMPERATURE.
      RH  - RELATIVE HUMIDITY.  PRES - PRESSURE.
      HX  - HEAT INDEX.         WCI  - WIND CHILL INDEX.

*  THESE STATIONS ARE NOT NWS OR FAA STATIONS AND ARE NOT UNDER
   NWS QUALITY CONTROL.

LAZ040-048-061>063-065-066-069-250200-
SOUTHEAST LOUISIANA

CITY           SKY/WX    TMP DP  RH WIND       PRES   REMARKS
N.O. AUDUBON   NOT AVBL
N.O. INTL ARPT CLOUDY    73  67  81 S7        29.84R
N.O. LAKEFRONT MOCLDY    73  66  78 SW8       29.85R
SLIDELL        MOCLDY    74  73  97 CALM      29.85R
BATON ROUGE    CLOUDY    73  68  84 SE7       29.82F
BOOTHVILLE     CLOUDY    75  74  96 NE5       29.90R FOG
BELLE CHASSE   MOCLDY    69  68  96 SE6       29.85R
BOGALUSA*        N/A     75  69  80 SE3       29.88S
GALLIANO*      CLOUDY    76  69  80 CALM      29.86S
NEW ROADS*     CLOUDY    74  67  78 SE9       29.81F
GONZALES*      MOCLDY   N/A N/A N/A CALM      29.83F
HAMMOND*       MOCLDY    73  68  83 E3        29.87R
HOUMA*         MOCLDY    73  71  94 NE6       29.84F
PORT FOURCHON* CLOUDY    77  75  94 E8        29.88F FOG

$$

LAZ041-044-053-054-250200-
SOUTHWEST LOUISIANA

CITY           SKY/WX    TMP DP  RH WIND       PRES   REMARKS
LAKE CHARLES   CLOUDY    77  74  90 S5        29.77R
LAFAYETTE      PTCLDY    71  67  87 SE6       29.78F
PATTERSON      CLOUDY    73  68  83 E8        29.84S
SALT POINT       N/A     77  75  93 SE6       29.80F
NEW IBERIA     MOCLDY    72  67  84 E13       29.81F
CHENAULT AIRPK NOT AVBL

$$

LAZ027-028-250200-
CENTRAL LOUISIANA

CITY           SKY/WX    TMP DP  RH WIND       PRES   REMARKS
FORT POLK      MOCLDY    75  72  88 SE13      29.74F
ALEXANDRIA INT CLOUDY    74  71  91 S10G20    29.74F
ALEXANDRIA     MOCLDY    73  70  90 S6        29.75F

$$

LAZ001-002-250200-
NORTHWEST LOUISIANA

CITY           SKY/WX    TMP DP  RH WIND       PRES   REMARKS
SHREVEPORT     CLOUDY    72  70  93 SE6       29.69F
BARKSDALE AFB  CLOUDY    71  71 100 E7        29.69F
DTN SHREVEPORT CLOUDY    71  68  90 SE6       29.69F

$$

LAZ014-016-250200-
NORTHEAST LOUISIANA

CITY           SKY/WX    TMP DP  RH WIND       PRES   REMARKS
MONROE         RAIN      71  69  93 NE7       29.76F
TALLULAH       CLOUDY    72  68  87 SE9       29.80F

$$



USA.gov is the U.S. government's official web portal to all federal, state and local government web resources and services.